Lapse_Rate
1.7 1.7 1.2 0.8 1.5 2.5 4.0 4.5 5.2 5.3 4.4 4.2 4.0 4.0 4.3 4.4 4.6 4.6 4.7 4.3 4.3 4.9 5.0 5.2 4.9 5.9 5.3 5.2 6.0 6.2 5.8 6.2 4.9 -0.6 -1.9 -2.5 -2.1 -2.3 -3.6 -3.8 -3.9 -4.1 -4.0
1.9 1.3 1.0 0.9 1.0 1.7 2.5 4.0 5.2 5.4 5.2 5.0 4.0 3.5 3.5 3.6 3.8 4.1 4.5 4.5 4.7 4.9 4.9 4.8 4.9 5.4 5.3 5.3 5.6 5.6 5.2 5.7 2.4 -0.5 -1.4 -1.8 -2.5 -3.3 -4.5 -4.9 -4.5 -4.5 -4.6
1.4 0.8 0.7 0.9 0.7 1.1 1.4 2.2 3.4 5.2 5.6 4.9 3.9 3.7 3.4 3.2 3.6 3.8 3.9 4.4 4.2 4.6 4.9 5.2 5.4 5.6 5.2 5.3 5.4 5.4 5.2 4.3 1.8 -2.3 -1.6 -1.9 -3.2 -4.0 -4.6 -5.0 -5.2 -4.6 -4.6
1.6 0.9 0.6 0.6 0.6 0.4 0.9 1.5 2.1 3.9 5.9 5.4 4.1 3.8 3.4 2.4 3.3 3.2 3.5 3.4 3.6 4.2 4.5 5.2 5.5 5.3 5.3 5.3 4.7 5.0 4.9 3.6 1.9 0.2 -1.5 -2.0 -3.1 -4.2 -3.7 -4.6 -3.8 -4.2 -4.4
1.3 0.7 0.1 0.3 0.6 0.1 0.5 0.7 1.3 2.0 5.2 5.6 4.7 3.9 3.6 3.0 2.5 2.9 2.8 3.2 3.6 3.8 3.8 4.5 5.2 4.9 2.9 3.9 5.1 3.9 3.5 2.6 1.8 -0.3 -2.0 -2.5 -3.4 -4.2 -4.2 -4.1 -3.9 -5.6 -5.1
1.5 1.1 0.4 -0.5 -0.8 -0.4 -0.4 0.1 0.9 1.9 3.6 5.6 5.1 4.1 3.3 3.1 -0.0 -1.2 1.9 2.9 3.1 3.4 3.7 3.4 3.3 1.9 1.7 0.7 0.5 0.6 1.9 1.4 0.7 -0.0 -1.1 -2.3 -3.4 -2.8 -4.7 -4.1 -4.7 -4.8 -2.9
1.6 1.4 0.4 -0.4 -1.1 -0.6 -0.6 -0.4 0.3 0.9 1.1 4.4 4.7 4.7 3.7 2.7 -1.5 -1.6 -1.1 2.9 3.0 3.4 3.0 1.5 0.4 -0.1 0.9 -1.6 -1.2 -1.3 -1.9 -1.0 -0.5 -0.8 -2.2 -2.4 -3.9 -3.7 -4.9 -5.1 -3.7 -2.8 -3.4
1.4 1.0 0.7 0.5 -0.5 -0.3 0.0 -0.2 -0.2 0.4 0.4 3.5 3.2 2.1 0.7 -2.7 -3.6 -2.8 -2.3 -2.0 -3.2 -3.8 -4.0 -3.6 -2.4 -4.0 -2.6 -2.7 -3.7 -2.8 -3.3 -3.4 -2.9 -2.0 -1.0 -2.8 -3.7 -3.9 -3.1 -3.5 -3.7 -5.7 -3.2
0.4 0.6 1.0 0.8 0.3 0.4 0.7 -0.1 -0.4 -0.2 -0.4 1.2 0.6 -0.9 -1.5 -3.9 -4.8 -4.6 -3.7 -4.3 -5.0 -5.4 -5.6 -5.4 -5.2 -4.4 -3.7 -2.5 -3.5 -4.0 -4.9 -5.2 -4.8 -4.3 -3.9 -3.8 -3.5 -3.7 -5.4 -5.9 -3.7 -3.6 -2.0
-0.2 0.1 1.4 1.6 0.8 0.7 0.8 -0.1 -0.3 0.2 0.2 -1.1 -2.6 -2.5 -4.2 -4.5 -4.8 -4.8 -4.0 -4.2 -4.9 -5.6 -5.8 -5.6 -5.2 -5.1 -4.3 -3.8 -2.7 -3.8 -4.2 -4.8 -5.0 -4.7 -5.5 -4.8 -4.7 -4.9 -4.2 -2.6 -3.6 -2.9 -2.2
0.3 0.3 0.9 2.8 2.1 1.6 0.4 -0.4 -0.4 0.8 -0.4 -1.9 -3.1 -2.9 -4.5 -4.3 -4.9 -4.4 -4.2 -4.4 -4.9 -5.4 -5.5 -5.5 -5.2 -4.8 -4.5 -3.2 -2.6 -3.6 -5.1 -6.0 -6.8 -6.4 -6.3 -6.0 -6.0 -5.0 -4.0 -3.3 -1.9 -0.4 -1.4
1.3 1.5 2.8 4.0 2.7 1.5 -0.2 -0.9 0.1 0.7 -0.1 -1.4 -2.0 -3.0 -4.6 -4.8 -4.8 -4.4 -4.6 -4.8 -4.8 -5.4 -6.0 -5.8 -4.9 -4.2 -3.2 -3.1 -3.7 -4.5 -6.1 -6.7 -6.0 -5.1 -3.9 -4.3 -3.6 -3.2 -2.8 -2.6 -2.0 -0.3 -0.1
2.7 3.2 4.2 3.2 1.7 1.1 -0.7 -1.5 0.8 2.3 1.0 0.3 0.2 -1.6 -0.8 -4.7 -5.0 -4.9 -4.8 -5.2 -5.7 -5.8 -5.1 -4.7 -4.8 -3.9 -3.2 -2.8 -2.9 -3.7 -4.6 -4.4 -4.2 -4.0 -4.1 -3.1 -2.7 -1.8 -0.7 -0.5 -0.1 1.2 0.3
4.3 4.0 3.1 2.0 1.3 1.8 0.1 -0.3 1.2 2.3 2.4 2.1 1.5 1.0 -0.4 -0.8 -5.3 -6.0 -5.9 -5.4 -4.3 -3.9 -4.4 -5.2 -5.0 -3.4 -3.4 -4.2 -4.0 -3.8 -3.7 -3.4 -3.3 -3.3 -2.6 -1.2 0.3 0.3 -0.2 1.4 -0.3 0.4 -0.1
3.5 3.2 2.6 2.5 2.5 2.5 1.8 1.3 2.0 2.2 3.0 3.4 2.5 1.0 -0.6 1.0 -3.0 -4.8 -6.0 -5.7 -5.5 -5.3 -5.5 -3.8 -2.5 -1.6 -2.2 -2.1 -1.5 -2.0 -2.1 -1.7 -1.8 -1.0 -0.5 0.5 1.3 2.1 1.7 1.4 1.4 1.3 0.6
4.2 4.0 3.7 3.3 3.3 2.5 2.1 2.7 3.3 2.9 2.8 2.6 1.6 0.8 -0.2 0.1 1.7 1.9 -3.0 -4.8 -4.3 -3.9 -2.8 -2.1 -1.4 -0.8 -1.2 -1.0 -0.7 -0.2 -0.1 -0.3 -0.2 0.0 0.9 2.0 1.7 1.1 1.0 2.0 1.8 1.7 1.1
4.3 4.0 3.9 3.8 3.8 3.5 2.3 3.0 3.3 4.6 4.5 3.9 2.5 1.6 1.1 0.2 3.4 4.4 2.3 0.1 -0.5 -1.1 -2.3 -0.6 -0.5 -0.1 0.6 1.0 0.9 0.8 0.7 0.7 1.0 1.2 2.1 2.0 1.1 1.1 1.5 1.3 1.4 1.5 1.5
4.5 4.4 4.1 3.9 3.8 3.8 3.6 4.3 4.5 5.3 5.8 6.0 5.6 3.7 2.9 2.3 3.6 5.1 5.6 4.2 2.9 1.6 0.8 0.9 1.0 1.6 1.8 1.8 1.7 1.2 1.3 1.6 2.2 3.0 1.7 0.8 1.0 0.8 1.2 1.3 1.1 1.0 1.4
4.5 4.7 4.8 4.8 4.8 4.8 4.7 4.7 4.9 5.5 6.3 6.6 6.9 6.8 7.0 7.0 6.4 6.3 4.9 3.2 3.5 3.4 3.1 2.3 2.2 1.8 1.4 1.0 0.9 1.2 1.3 2.7 2.0 1.0 0.7 0.8 0.8 1.1 0.9 1.3 1.4 1.0 1.1
4.8 5.1 4.8 5.2 5.3 5.4 5.3 5.0 5.0 5.0 5.3 5.7 5.8 5.8 5.5 5.2 4.3 3.8 2.6 2.0 1.8 2.0 2.1 1.7 1.5 1.4 1.1 1.1 1.0 1.5 1.5 1.1 0.8 1.0 1.1 1.1 1.1 1.3 0.8 0.8 0.6 0.7 1.2
4.8 4.8 4.8 5.0 5.1 5.3 5.2 5.3 5.2 5.0 4.9 4.9 5.0 5.0 4.8 4.5 4.4 3.8 3.6 3.1 2.9 2.4 2.1 2.1 2.1 1.7 1.8 2.4 1.9 1.2 0.8 1.1 1.3 1.0 0.9 1.0 1.0 0.8 0.8 1.0 0.9 1.3 1.0
4.9 4.9 4.9 4.9 5.0 4.8 4.8 4.8 4.7 4.6 4.6 4.6 4.7 4.2 3.6 3.3 3.3 3.5 3.3 3.0 2.6 2.3 2.1 2.2 2.5 2.3 1.5 1.3 0.9 0.8 0.7 0.8 1.0 1.0 0.9 1.2 1.4 1.1 1.1 1.2 0.9 1.0 1.3
4.1 4.6 4.8 4.7 4.8 4.6 4.3 4.2 4.2 4.2 4.4 4.3 3.6 3.0 2.8 2.8 2.6 2.4 2.3 2.2 2.2 2.2 2.2 2.2 0.9 0.6 0.6 0.5 0.7 0.7 -0.1 -0.3 -0.1 0.8 0.3 0.5 0.8 0.6 0.9 0.5 0.2 0.1 -0.5
3.5 4.0 4.4 4.4 4.2 4.1 4.0 3.8 3.7 3.5 3.3 3.1 2.8 2.5 2.2 1.9 1.5 1.2 1.0 0.5 0.2 -0.3 0.0 -0.4 -0.7 -1.1 -1.2 -1.3 -1.2 -1.1 -1.7 -1.4 -0.3 0.3 0.7 0.5 -0.0 0.2 -0.3 -0.3 -0.5 -3.0 -3.3
2.6 3.4 3.9 3.9 3.8 3.6 3.6 3.6 3.3 3.0 2.8 2.7 2.5 2.3 2.1 1.7 1.3 1.1 0.9 0.5 -0.3 -1.1 -1.5 -2.0 -2.0 -2.3 -2.6 -2.7 -2.7 -2.6 -2.0 -0.3 0.2 0.8 0.5 -0.1 -1.0 -1.5 -1.4 -1.3 -2.7 -2.0 -3.6
3.4 3.5 3.6 3.6 3.6 3.6 3.5 3.3 3.1 2.9 2.6 2.3 1.9 1.6 1.7 1.7 1.7 1.3 0.9 0.5 -0.4 -1.3 -2.1 -2.7 -3.0 -3.1 -3.0 -3.2 -3.1 -2.6 -1.8 -1.0 -0.4 0.5 0.6 -0.1 -0.7 -1.8 -1.9 -2.1 -1.9 -2.7 -2.6
Wind_Speed
5 6 5 5 6 6 6 6 6 6 9 9 11 11 11 11 12 12 11 10 12 11 11 12 13 17 15 13 11 11 10 8 9 3 3 8 7 11 16 20 19 21 21
5 5 7 6 7 9 9 10 8 6 6 10 11 11 10 10 10 10 10 9 11 12 12 11 12 10 15 16 11 14 13 8 8 12 9 4 4 8 14 14 14 15 19
6 6 7 8 9 9 11 11 11 9 6 10 10 11 11 11 11 10 10 11 10 10 10 11 12 14 12 11 13 11 10 7 10 9 8 3 3 7 7 9 11 12 16
6 8 8 8 9 9 11 13 12 11 10 10 12 12 11 10 10 10 10 11 10 10 10 11 12 11 13 18 11 13 11 11 11 12 9 8 7 7 6 9 6 5 7
9 9 9 11 11 10 11 12 14 11 12 10 13 13 12 10 9 11 11 11 10 11 8 10 11 11 13 11 11 10 14 13 12 11 10 8 6 10 11 6 4 7 4
9 9 10 11 11 12 12 13 13 12 14 11 13 15 14 10 13 15 13 10 11 10 9 8 7 11 13 17 13 18 17 15 15 10 9 14 13 11 7 9 8 5 4
10 10 11 11 12 12 13 13 12 14 13 15 12 16 15 9 14 15 15 8 8 8 8 6 5 4 7 5 13 21 21 24 21 16 16 15 13 16 15 12 9 5 3
11 12 12 12 13 13 13 15 14 13 13 14 9 6 9 5 8 12 11 6 5 4 3 1 4 2 4 12 9 9 10 9 10 8 15 12 7 15 14 9 10 11 8
12 13 13 13 13 14 14 13 13 13 13 8 5 8 8 5 10 14 12 7 7 6 4 4 4 5 6 15 15 14 12 11 17 23 23 22 26 25 26 14 8 12 4
14 14 14 13 13 13 14 13 10 11 12 2 4 5 9 8 10 12 12 7 8 6 6 6 9 9 12 7 12 17 15 11 17 18 17 19 23 23 18 12 12 11 8
15 15 14 15 12 12 12 11 10 11 5 2 4 6 5 8 10 12 14 8 8 7 6 5 5 14 15 13 8 10 18 15 17 15 14 11 11 10 8 14 14 8 5
15 14 14 13 10 9 11 8 9 3 1 2 2 3 2 5 12 12 15 16 15 10 9 8 10 21 24 26 19 24 29 20 12 11 10 11 10 8 7 13 17 14 11
14 14 12 12 8 8 9 8 7 3 2 2 1 2 3 6 8 20 21 23 21 12 9 18 27 29 30 23 26 23 16 11 12 12 11 9 8 9 17 16 20 21 19
12 11 9 8 9 7 6 7 6 3 2 2 3 3 3 3 8 9 11 14 25 19 21 13 13 16 18 16 13 13 10 9 11 12 11 10 10 9 10 8 9 8 8
10 8 7 6 7 7 7 7 7 6 5 4 3 4 4 3 1 10 17 14 13 15 17 11 10 10 11 10 10 11 10 11 11 11 11 10 10 9 8 7 6 5 7
9 7 6 6 6 6 6 6 17 14 6 12 12 10 5 11 8 12 23 29 31 27 11 11 11 10 11 11 11 10 9 11 10 10 9 9 9 9 8 7 6 6 7
8 9 7 8 6 6 5 6 6 9 19 13 16 22 23 22 18 18 24 27 24 20 12 11 11 11 10 10 10 11 11 9 10 9 9 9 9 9 9 7 7 6 7
9 10 6 6 6 6 6 6 5 5 6 7 13 15 25 29 28 22 19 15 10 12 10 11 12 12 11 10 10 10 10 9 10 9 9 8 7 8 8 7 6 7 6
7 6 6 6 6 7 6 7 8 8 7 6 7 11 14 23 24 20 20 9 10 10 10 11 10 11 11 11 11 10 11 9 9 9 8 8 7 8 7 7 7 7 7
6 11 9 6 6 7 7 8 8 9 9 8 8 7 7 10 10 10 10 10 9 9 9 10 10 10 10 10 10 10 10 10 9 8 8 8 7 7 7 7 6 6 4
5 6 9 7 7 7 7 7 7 8 8 8 8 9 13 9 9 10 9 9 9 9 10 9 9 10 9 9 9 9 9 8 8 8 7 7 7 7 6 6 6 5 4
4 5 6 6 6 7 7 7 8 8 8 8 8 10 15 9 10 10 10 10 10 9 8 9 9 8 8 8 8 9 9 9 8 8 7 7 7 7 6 6 5 4 4
4 5 6 6 6 8 8 8 8 8 8 8 8 9 9 8 9 10 10 10 10 10 14 13 9 9 15 15 15 12 8 7 7 11 7 7 6 6 6 5 5 4 3
4 5 6 6 6 6 7 7 8 10 8 8 8 8 8 8 9 10 9 9 10 12 16 16 15 15 16 16 17 17 17 16 16 16 14 8 7 6 6 5 4 3 2
4 4 5 5 6 6 6 7 7 7 7 7 8 8 8 8 9 9 9 8 8 10 15 17 17 18 20 20 19 20 20 22 20 19 17 14 9 7 5 4 3 2 2
4 5 5 5 5 5 5 6 6 6 7 7 7 7 7 8 8 8 8 8 8 12 16 17 18 20 19 19 19 20 21 20 18 17 17 14 9 4 4 4 6 3 3
Wind_Direction
36 2 355 352 350 334 327 287 260 249 213 197 193 189 181 191 196 196 200 198 204 212 214 221 223 225 210 185 193 187 185 190 159 98 92 127 110 125 116 108 110 108 110
1 1 359 351 355 355 342 332 288 268 245 205 199 183 181 179 179 188 198 201 209 215 227 232 228 218 200 190 186 183 186 186 149 141 142 132 109 126 119 113 112 115 117
9 5 5 357 357 346 339 323 317 289 255 224 202 192 188 187 184 195 202 214 214 220 223 219 226 219 209 195 183 177 182 151 149 146 142 141 122 137 115 99 109 110 114
10 14 4 355 350 346 331 324 318 311 266 230 204 205 192 182 189 190 204 211 213 221 219 219 219 214 205 190 175 182 171 150 147 150 136 144 142 143 130 136 133 124 117
19 14 1 350 349 337 327 321 319 316 294 240 214 200 198 186 187 187 205 211 213 216 213 214 216 208 198 199 193 170 160 151 155 152 147 147 140 159 163 155 133 121 102
9 3 357 346 342 332 327 321 318 309 315 252 220 201 191 189 184 191 194 203 206 210 217 211 205 207 205 195 189 157 156 160 157 158 162 167 165 174 142 149 147 141 161
0 360 349 341 336 329 325 319 317 315 309 291 230 214 185 188 172 182 194 197 199 208 209 197 198 214 196 151 186 158 157 161 166 167 168 172 163 177 153 153 168 149 133
353 347 341 334 330 325 320 319 317 313 308 292 222 179 136 128 165 178 166 123 105 87 69 88 158 150 157 139 103 107 120 123 148 160 169 166 161 158 162 146 145 108 94
349 339 332 326 322 320 314 313 311 305 307 290 273 155 145 141 118 132 124 113 101 82 70 74 112 98 97 153 130 118 97 88 83 96 104 117 128 139 134 121 136 130 121
340 330 320 315 316 311 306 307 304 295 290 303 348 280 128 124 131 131 125 127 114 104 80 74 97 107 99 142 150 136 119 120 116 108 96 96 104 114 123 132 144 139 120
329 324 323 315 307 301 305 306 304 290 274 81 68 317 88 127 131 137 133 130 130 116 101 88 86 104 100 97 125 130 125 120 103 103 106 98 90 88 86 97 103 125 121
327 319 311 300 310 318 312 312 315 313 162 55 94 79 63 109 115 127 122 119 124 119 113 102 97 101 102 100 93 109 110 105 100 99 96 98 101 96 91 87 91 88 83
321 314 306 312 328 332 328 333 318 279 182 144 128 106 293 122 115 120 117 113 109 106 112 114 109 103 99 93 100 99 92 101 110 108 105 101 103 113 109 98 93 95 92
305 307 317 328 342 339 350 354 321 278 212 179 162 139 124 239 128 131 120 113 109 109 112 105 102 99 95 98 92 83 87 94 105 109 112 115 117 111 101 107 111 112 103
324 321 328 336 348 348 1 0 345 314 256 185 158 134 136 234 218 160 139 135 131 126 121 114 109 107 104 99 95 95 100 104 105 110 113 115 111 109 106 111 115 104 107
335 339 344 349 359 3 355 2 15 16 27 111 120 122 90 104 141 149 134 129 130 132 120 120 115 112 110 112 108 104 99 102 103 104 103 106 109 110 109 101 96 102 109
346 360 359 4 6 10 3 13 1 9 40 61 110 118 118 118 117 125 126 124 124 120 115 117 115 114 111 109 110 109 106 102 104 102 106 106 105 106 109 107 104 102 100
3 13 11 6 4 12 14 17 20 23 43 50 61 95 112 117 118 119 111 101 100 95 103 111 112 112 110 108 107 106 102 101 104 102 101 101 104 111 110 104 95 108 110
11 13 15 15 17 27 31 34 37 34 45 57 73 77 91 97 97 96 89 86 91 89 98 100 103 106 107 107 107 105 105 105 107 107 106 108 108 112 105 102 100 93 89
15 21 26 18 15 24 38 47 50 48 49 50 51 55 66 75 81 79 79 86 88 95 98 98 101 101 104 106 107 107 108 108 108 107 109 108 104 103 105 105 94 95 92
15 27 32 34 31 36 44 49 53 59 61 62 62 59 65 72 77 81 81 81 83 87 91 91 92 96 98 104 107 106 105 105 106 108 110 110 108 107 101 96 100 100 99
25 36 42 42 40 43 47 50 52 57 60 66 65 58 65 70 75 77 79 80 83 83 84 91 88 87 91 100 104 107 109 109 110 109 103 102 104 102 101 103 103 102 95
31 39 48 48 50 51 52 53 56 55 53 53 60 64 60 63 70 74 76 74 73 73 73 80 85 83 78 81 87 97 104 102 102 111 107 104 103 103 109 109 110 100 81
34 53 57 55 56 60 60 60 59 57 64 61 62 64 67 67 67 68 70 73 74 72 73 75 74 81 84 81 81 83 85 90 98 103 106 106 106 104 102 100 96 91 106
29 46 56 59 63 63 70 67 67 65 65 66 69 66 68 69 69 68 70 71 73 75 74 79 81 80 80 85 89 91 95 103 107 113 111 106 102 96 100 96 105 90 82
45 55 57 57 60 63 67 70 68 70 71 67 66 66 69 73 71 73 76 79 81 80 79 79 81 84 84 85 94 101 106 106 105 110 114 107 103 98 99 101 89 80 80